Tracking 25963 objects as of 13-Aug-2022
HD Live streaming from Space Station
objects crossing your sky now

STARLINK-3457

Track STARLINK-3457 now!
10-day predictions
STARLINK-3457 is classified as:


NORAD ID: 51754
Int'l Code: 2022-016AS
Perigee: 545.7 km
Apogee: 548.2 km
Inclination: 53.2 °
Period: 95.4 minutes
Semi major axis: 6917 km
RCS: Unknown
Launch date: February 21, 2022
Source: United States (US)
Launch site: AIR FORCE EASTERN TEST RANGE (AFETR)
aabbcc
Your satellite tracking list
Your tracking list is empty




NASA's NSSDC Master Catalog

Two Line Element Set (TLE):
1 51754U 22016AS  22224.91668981  .00039972  00000-0  25163-2 0  9992
2 51754  53.2159  46.4754 0001790  57.2956  66.9203 15.08826539 27844
Source of the keplerian elements: AFSPC